EA5AFP-10 Weather Reports


Display with metric or nautical units.
time (UTC)temp
F
wind
direction
speed
MPH
gust
MPH
rain 1hr
in
rain 24hr
in
rain mn
in
humidity
%
barometer
mb
20260503021404 62 0 0.0 0.0 0.00 0.00 0.00 9 1011.6
20260503021046 62 202 0.0 2.0 0.00 0.00 0.00 9 1011.6
20260503020615 62 0 0.0 0.0 0.00 0.00 0.00 9 1011.7
20260503020122 62 0 0.0 0.0 0.00 0.00 0.00 9 1011.5
20260503015710 62 0 0.0 0.0 0.00 0.00 0.00 9 1011.6
20260503015708 62 0 0.0 0.0 0.00 0.00 0.00 9 1011.6
20260503015706 62 0 0.0 0.0 0.00 0.00 0.00 9 1011.6
20260503015443 62 0 0.0 0.0 0.00 0.00 0.00 9 1011.7
20260503015010 62 0 0.0 0.0 0.00 0.00 0.00 9 1011.7
20260503014554 62 0 0.0 0.0 0.00 0.00 0.00 9 1011.7
20260503014120 62 180 0.0 1.0 0.00 0.00 0.00 9 1011.8
20260503013632 62 180 0.0 2.0 0.00 0.00 0.00 9 1011.8
20260503013203 62 270 0.0 1.0 0.00 0.00 0.00 9 1011.8
20260503012713 63 0 0.0 0.0 0.00 0.00 0.00 9 1012.0
20260503012241 63 270 1.0 1.0 0.00 0.00 0.00 9 1012.1
20260503011836 63 0 0.0 0.0 0.00 0.00 0.00 9 1012.1
20260503011537 63 0 0.0 1.0 0.00 0.00 0.00 9 1012.1
20260503011427 63 0 0.0 1.0 0.00 0.00 0.00 9 1012.3
20260503011025 63 0 0.0 0.0 0.00 0.00 0.00 9 1012.1
20260503010611 63 0 0.0 1.0 0.00 0.00 0.00 9 1012.0
20260503010538 63 0 0.0 1.0 0.00 0.00 0.00 9 1012.0
20260503010121 63 180 0.0 1.0 0.00 0.00 0.00 9 1012.2
20260503005712 63 0 0.0 0.0 0.00 0.00 0.00 9 1012.3
20260503005710 63 0 0.0 0.0 0.00 0.00 0.00 9 1012.3
20260503005423 63 0 0.0 0.0 0.00 0.00 0.00 9 1012.3
20260503005305 63 0 0.0 1.0 0.00 0.00 0.00 9 1012.5
20260503004955 63 0 0.0 0.0 0.00 0.00 0.00 9 1012.4
20260503004522 63 0 0.0 0.0 0.00 0.00 0.00 9 1012.5
20260503004409 63 0 0.0 0.0 0.00 0.00 0.00 9 1012.4
20260503004046 63 0 0.0 0.0 0.00 0.00 0.00 9 1012.5
20260503003553 63 0 0.0 0.0 0.00 0.00 0.00 9 1012.6
20260503003126 63 0 0.0 0.0 0.00 0.00 0.00 9 1012.6
20260503002713 63 0 0.0 0.0 0.00 0.00 0.00 9 1012.6
20260503002406 63 0 0.0 0.0 0.00 0.00 0.00 9 1012.7
20260503002308 63 0 0.0 0.0 0.00 0.00 0.00 9 1012.7
20260503001913 63 292 0.0 1.0 0.00 0.00 0.00 9 1012.8
20260503001445 63 292 1.0 2.0 0.00 0.00 0.00 9 1013.0
20260503001011 63 270 1.0 2.0 0.00 0.00 0.00 9 1013.0
20260503000609 63 0 0.0 0.0 0.00 0.00 0.00 9 1013.1
20260503000126 63 0 0.0 0.0 0.00 0.00 0.00 9 1012.9
20260502235701 63 0 0.0 0.0 0.00 0.00 0.00 9 1013.0
20260502235446 63 0 0.0 0.0 0.00 0.00 0.00 9 1013.0
20260502235304 63 0 0.0 0.0 0.00 0.00 0.00 9 1012.8
20260502235021 63 202 0.0 1.0 0.00 0.00 0.00 9 1013.1
20260502234536 63 0 0.0 0.0 0.00 0.00 0.00 9 1013.2
20260502234407 63 202 1.0 2.0 0.00 0.00 0.00 9 1013.2
20260502234101 63 0 0.0 1.0 0.00 0.00 0.00 9 1013.3
20260502233613 63 247 0.0 1.0 0.00 0.00 0.00 9 1013.4
20260502233541 63 0 0.0 1.0 0.00 0.00 0.00 9 1013.2
20260502233125 63 0 0.0 1.0 0.00 0.00 0.00 9 1013.2
20260502232714 63 270 0.0 1.0 0.00 0.00 0.00 9 1013.3
20260502232431 63 270 0.0 1.0 0.00 0.00 0.00 9 1013.2
20260502232016 63 270 1.0 2.0 0.00 0.00 0.00 9 1013.1
20260502231539 63 292 3.0 3.0 0.00 0.00 0.00 9 1013.1
20260502231100 63 270 2.0 2.0 0.00 0.00 0.00 9 1013.2
20260502230612 63 270 1.0 2.0 0.00 0.00 0.00 9 1013.1
20260502230124 63 270 1.0 1.0 0.00 0.00 0.00 9 1013.1
20260502225712 63 270 1.0 2.0 0.00 0.00 0.00 9 1013.3
20260502225710 63 270 1.0 2.0 0.00 0.00 0.00 9 1013.3
20260502225422 63 270 1.0 2.0 0.00 0.00 0.00 9 1013.3
20260502225321 63 247 2.0 2.0 0.00 0.00 0.00 9 1013.3
20260502224846 63 0 0.0 0.0 0.00 0.00 0.00 9 1013.2
20260502224435 63 0 0.0 0.0 0.00 0.00 0.00 9 1013.3
20260502224012 63 0 0.0 1.0 0.00 0.00 0.00 9 1013.2
20260502223528 63 225 0.0 1.0 0.00 0.00 0.00 9 1013.3
20260502223121 63 225 1.0 1.0 0.00 0.00 0.00 9 1013.4
20260502222711 63 225 1.0 2.0 0.00 0.00 0.00 9 1013.5
20260502222333 63 225 1.0 1.0 0.00 0.00 0.00 9 1013.6
20260502221934 63 0 0.0 1.0 0.00 0.00 0.00 9 1013.4
20260502221449 62 0 0.0 1.0 0.00 0.00 0.00 9 1013.3
20260502221047 62 225 1.0 2.0 0.00 0.00 0.00 9 1013.4
20260502220617 62 0 0.0 0.0 0.00 0.00 0.00 9 1013.4
20260502220559 62 0 0.0 0.0 0.00 0.00 0.00 9 1013.6
20260502220132 62 0 0.0 0.0 0.00 0.00 0.00 9 1013.4
20260502215709 62 0 0.0 0.0 0.00 0.00 0.00 9 1013.6
20260502215707 62 0 0.0 0.0 0.00 0.00 0.00 9 1013.6
20260502215457 62 0 0.0 0.0 0.00 0.00 0.00 9 1013.6
20260502215413 62 0 0.0 0.0 0.00 0.00 0.00 9 1013.4
20260502214953 62 0 0.0 0.0 0.00 0.00 0.00 9 1013.6
20260502214533 63 0 0.0 0.0 0.00 0.00 0.00 9 1013.6
20260502214049 63 0 0.0 0.0 0.00 0.00 0.00 9 1013.6
20260502213703 63 112 2.0 2.0 0.00 0.00 0.00 9 1013.5
20260502213633 63 112 2.0 2.0 0.00 0.00 0.00 9 1013.5
20260502213208 63 112 1.0 2.0 0.00 0.00 0.00 9 1013.6
20260502212714 62 90 1.0 2.0 0.00 0.00 0.00 9 1013.7
20260502212418 62 90 1.0 2.0 0.00 0.00 0.00 9 1013.7
20260502211921 62 0 0.0 0.0 0.00 0.00 0.00 9 1013.7
20260502211448 62 0 0.0 0.0 0.00 0.00 0.00 9 1013.8
20260502211035 62 90 0.0 1.0 0.00 0.00 0.00 9 1013.6
20260502210518 62 90 1.0 2.0 0.00 0.00 0.00 9 1013.6
20260502210114 62 90 1.0 2.0 0.00 0.00 0.00 9 1013.4
20260502205710 62 112 3.0 4.0 0.00 0.00 0.00 9 1013.3
20260502205505 62 90 3.0 4.0 0.00 0.00 0.00 9 1013.4
20260502205043 63 112 1.0 2.0 0.00 0.00 0.00 9 1013.3
20260502204549 63 112 2.0 3.0 0.00 0.00 0.00 9 1013.3
20260502204110 63 90 3.0 4.0 0.00 0.00 0.00 9 1013.3
20260502203638 63 90 2.0 3.0 0.00 0.00 0.00 9 1013.3
20260502203206 63 90 4.0 6.0 0.00 0.00 0.00 9 1013.2
20260502202719 63 67 2.0 3.0 0.00 0.00 0.00 9 1013.2
20260502202717 63 67 2.0 3.0 0.00 0.00 0.00 9 1013.2
20260502202503 63 90 5.0 6.0 0.00 0.00 0.00 9 1013.1
20260502202346 63 90 3.0 6.0 0.00 0.00 0.00 9 1013.1
20260502201930 63 90 4.0 6.0 0.00 0.00 0.00 9 1013.1
20260502201518 63 90 3.0 6.0 0.00 0.00 0.00 9 1013.2
20260502201033 63 90 3.0 3.0 0.00 0.00 0.00 9 1013.1
20260502200650 64 90 3.0 6.0 0.00 0.00 0.00 9 1013.2
20260502200617 64 90 3.0 6.0 0.00 0.00 0.00 9 1013.2
20260502200152 64 112 5.0 6.0 0.00 0.00 0.00 9 1012.8
20260502195657 64 112 3.0 4.0 0.00 0.00 0.00 9 1013.0
20260502195513 64 112 3.0 4.0 0.00 0.00 0.00 9 1013.0
20260502195449 64 90 3.0 4.0 0.00 0.00 0.00 9 1013.3
20260502195032 64 67 4.0 6.0 0.00 0.00 0.00 9 1013.0
20260502194547 64 112 6.0 8.0 0.00 0.00 0.00 9 1013.0
20260502194121 64 112 6.0 8.0 0.00 0.00 0.00 9 1012.9
20260502193657 64 112 4.0 6.0 0.00 0.00 0.00 9 1012.9
20260502193630 64 112 6.0 9.0 0.00 0.00 0.00 9 1012.6
20260502193203 64 112 6.0 8.0 0.00 0.00 0.00 9 1012.7
20260502192716 64 90 6.0 8.0 0.00 0.00 0.00 8 1012.7
20260502192714 64 90 6.0 8.0 0.00 0.00 0.00 8 1012.7
20260502192712 64 90 6.0 8.0 0.00 0.00 0.00 8 1012.7
20260502192429 64 90 6.0 9.0 0.00 0.00 0.00 9 1012.7
20260502192301 64 112 6.0 9.0 0.00 0.00 0.00 9 1012.6
20260502192003 64 112 5.0 6.0 0.00 0.00 0.00 9 1012.7
20260502191514 64 112 6.0 8.0 0.00 0.00 0.00 9 1012.8
20260502191044 64 90 5.0 6.0 0.00 0.00 0.00 8 1012.8
20260502190531 64 90 4.0 6.0 0.00 0.00 0.00 8 1012.8
20260502190119 64 112 5.0 6.0 0.00 0.00 0.00 8 1012.9
20260502185711 64 112 8.0 11.0 0.00 0.00 0.00 8 1012.7
20260502185522 64 112 8.0 11.0 0.00 0.00 0.00 8 1012.7
20260502185515 64 90 7.0 10.0 0.00 0.00 0.00 8 1012.6
20260502185107 64 112 6.0 8.0 0.00 0.00 0.00 9 1012.5
20260502184622 64 112 5.0 6.0 0.00 0.00 0.00 9 1012.7
20260502184554 64 90 6.0 8.0 0.00 0.00 0.00 9 1012.8
20260502184127 64 112 6.0 8.0 0.00 0.00 0.00 8 1012.7
20260502183656 65 112 7.0 12.0 0.00 0.00 0.00 8 1012.7
20260502183207 65 112 6.0 9.0 0.00 0.00 0.00 8 1012.6
20260502182713 65 90 6.0 8.0 0.00 0.00 0.00 8 1012.7
20260502182403 65 90 6.0 9.0 0.00 0.00 0.00 8 1012.6
20260502182308 65 112 7.0 10.0 0.00 0.00 0.00 8 1012.7
20260502181907 65 90 8.0 12.0 0.00 0.00 0.00 8 1013.0
20260502181439 65 135 6.0 9.0 0.00 0.00 0.00 8 1013.3
20260502181407 65 112 6.0 9.0 0.00 0.00 0.00 8 1013.0
20260502180956 65 112 6.0 8.0 0.00 0.00 0.00 8 1013.3
20260502180527 65 135 7.0 10.0 0.00 0.00 0.00 8 1013.3
20260502180117 65 112 6.0 10.0 0.00 0.00 0.00 8 1013.3
20260502170203 67 90 6.0 9.0 0.00 0.00 0.00 8 1013.0
20260502164053 67 90 5.0 6.0 0.00 0.00 0.00 8 1013.3
20260502163707 67 135 7.0 10.0 0.00 0.00 0.00 8 1013.2
20260502163633 67 135 7.0 11.0 0.00 0.00 0.00 8 1013.1
20260502163208 67 112 7.0 9.0 0.00 0.00 0.00 8 1013.2
20260502162713 67 112 7.0 10.0 0.00 0.00 0.00 8 1013.3
20260502162459 67 112 8.0 11.0 0.00 0.00 0.00 8 1013.3
20260502162405 67 112 9.0 11.0 0.00 0.00 0.00 8 1013.2
20260502162000 67 90 9.0 13.0 0.00 0.00 0.00 8 1013.2
20260502161557 68 90 7.0 10.0 0.00 0.00 0.00 8 1013.3
20260502161515 68 90 8.0 10.0 0.00 0.00 0.00 8 1013.2
20260502161117 68 112 6.0 9.0 0.00 0.00 0.00 8 1013.3
20260502160630 67 67 7.0 12.0 0.00 0.00 0.00 8 1013.5
20260502160201 68 112 7.0 12.0 0.00 0.00 0.00 8 1013.3
20260502152338 68 112 9.0 11.0 0.00 0.00 0.00 8 1013.9
20260502152245 68 112 4.0 8.0 0.00 0.00 0.00 8 1013.9
20260502151939 68 112 6.0 9.0 0.00 0.00 0.00 8 1013.6
20260502151444 68 112 9.0 11.0 0.00 0.00 0.00 8 1013.8
20260502151009 68 135 9.0 12.0 0.00 0.00 0.00 8 1014.0
20260502150530 68 90 9.0 12.0 0.00 0.00 0.00 8 1014.3
20260502150119 68 112 6.0 9.0 0.00 0.00 0.00 8 1014.0
20260502130456 68 90 9.0 13.0 0.00 0.00 0.00 8 1015.4
20260502123538 67 112 5.0 9.0 0.00 0.00 0.00 8 1015.6
20260502123130 68 112 6.0 9.0 0.00 0.00 0.00 8 1015.4
20260502123127 68 90 6.0 10.0 0.00 0.00 0.00 8 1015.3
20260502122712 67 90 7.0 10.0 0.00 0.00 0.00 8 1015.7
20260502122245 67 67 8.0 11.0 0.00 0.00 0.00 8 1015.7
20260502121750 68 67 6.0 10.0 0.00 0.00 0.00 8 1015.7
20260502121347 67 67 7.0 9.0 0.00 0.00 0.00 8 1015.6
20260502120944 67 90 7.0 10.0 0.00 0.00 0.00 8 1015.7
20260502120536 67 112 4.0 6.0 0.00 0.00 0.00 8 1015.7
20260502120120 68 67 5.0 8.0 0.00 0.00 0.00 8 1015.7
20260502115710 67 112 8.0 11.0 0.00 0.00 0.00 8 1015.9
20260502115317 68 90 8.0 11.0 0.00 0.00 0.00 8 1015.8
20260502115313 68 67 8.0 10.0 0.00 0.00 0.00 8 1015.8
20260502114913 68 67 6.0 9.0 0.00 0.00 0.00 8 1016.0
20260502114432 68 90 9.0 13.0 0.00 0.00 0.00 8 1015.5
20260502114000 68 90 7.0 10.0 0.00 0.00 0.00 8 1015.6
20260502113554 68 90 9.0 11.0 0.00 0.00 0.00 8 1015.9
20260502113122 68 112 6.0 9.0 0.00 0.00 0.00 8 1015.8
20260502112714 68 67 9.0 12.0 0.00 0.00 0.00 8 1015.8
20260502112712 68 67 9.0 12.0 0.00 0.00 0.00 8 1015.8
20260502112342 69 90 6.0 8.0 0.00 0.00 0.00 8 1016.0
20260502111846 68 90 4.0 8.0 0.00 0.00 0.00 8 1016.2
20260502111358 68 135 6.0 9.0 0.00 0.00 0.00 8 1016.1
20260502110958 67 90 4.0 6.0 0.00 0.00 0.00 8 1016.2
20260502110501 67 67 3.0 6.0 0.00 0.00 0.00 8 1016.3
20260502110033 66 112 6.0 8.0 0.00 0.00 0.00 8 1016.3
20260502105623 66 90 4.0 6.0 0.00 0.00 0.00 9 1016.5
20260502105119 66 90 3.0 4.0 0.00 0.00 0.00 9 1016.6
20260502104646 66 112 3.0 4.0 0.00 0.00 0.00 9 1016.5
20260502104215 65 112 5.0 6.0 0.00 0.00 0.00 9 1016.6
20260502103748 65 90 3.0 4.0 0.00 0.00 0.00 9 1016.7
20260502103336 65 90 4.0 6.0 0.00 0.00 0.00 9 1016.6
20260502103327 65 112 6.0 8.0 0.00 0.00 0.00 9 1016.6
20260502102832 65 90 5.0 8.0 0.00 0.00 0.00 9 1016.9
20260502102504 65 112 3.0 4.0 0.00 0.00 0.00 9 1016.9
20260502102415 65 112 4.0 6.0 0.00 0.00 0.00 9 1016.6
20260502102002 65 90 4.0 6.0 0.00 0.00 0.00 9 1016.8
20260502101518 66 112 6.0 9.0 0.00 0.00 0.00 8 1016.6
20260502101115 66 112 6.0 9.0 0.00 0.00 0.00 8 1016.6
20260502100645 66 112 6.0 9.0 0.00 0.00 0.00 8 1016.7
20260502100157 66 135 7.0 9.0 0.00 0.00 0.00 8 1016.5
20260502091256 67 90 1.0 3.0 0.00 0.00 0.00 8 1016.9
20260502091102 67 67 1.0 3.0 0.00 0.00 0.00 8 1016.8
20260502090814 67 90 0.0 2.0 0.00 0.00 0.00 8 1017.0
20260502090356 66 90 4.0 4.0 0.00 0.00 0.00 8 1016.9
20260502071058 64 270 2.0 2.0 0.00 0.00 0.00 9 1017.0
20260502070609 64 247 2.0 3.0 0.00 0.00 0.00 9 1017.1
20260502070537 64 292 2.0 4.0 0.00 0.00 0.00 9 1017.0
20260502070121 65 337 0.0 2.0 0.00 0.00 0.00 9 1017.0
20260502065709 64 0 0.0 0.0 0.00 0.00 0.00 9 1017.0
20260502065707 64 0 0.0 0.0 0.00 0.00 0.00 9 1017.0
20260502065601 64 0 0.0 0.0 0.00 0.00 0.00 9 1017.0
20260502065108 64 270 0.0 2.0 0.00 0.00 0.00 9 1017.0
20260502064619 63 292 0.0 1.0 0.00 0.00 0.00 9 1016.9
20260502064612 63 292 0.0 2.0 0.00 0.00 0.00 9 1017.1
20260502064126 63 270 0.0 2.0 0.00 0.00 0.00 9 1016.9
20260502063657 63 292 1.0 2.0 0.00 0.00 0.00 9 1017.0
20260502063206 63 292 1.0 2.0 0.00 0.00 0.00 9 1016.9
20260502062713 63 292 0.0 1.0 0.00 0.00 0.00 9 1017.0
20260502062711 63 292 0.0 1.0 0.00 0.00 0.00 9 1017.0
20260502062439 63 292 0.0 1.0 0.00 0.00 0.00 9 1017.2
20260502062256 62 292 0.0 1.0 0.00 0.00 0.00 9 1017.2
20260502062014 62 292 0.0 2.0 0.00 0.00 0.00 9 1017.2
20260502061534 62 270 0.0 1.0 0.00 0.00 0.00 9 1017.2
20260502061401 62 270 1.0 2.0 0.00 0.00 0.00 9 1017.2
20260502061057 62 270 1.0 2.0 0.00 0.00 0.00 9 1017.3
20260502060608 62 270 2.0 2.0 0.00 0.00 0.00 9 1017.1
20260502060534 62 270 2.0 2.0 0.00 0.00 0.00 9 1017.1
20260502060119 62 270 1.0 2.0 0.00 0.00 0.00 9 1017.1
20260502055711 62 270 1.0 2.0 0.00 0.00 0.00 9 1016.8
20260502055456 62 270 0.0 1.0 0.00 0.00 0.00 9 1016.8
20260502055305 62 247 0.0 1.0 0.00 0.00 0.00 9 1017.0
20260502055001 62 247 1.0 2.0 0.00 0.00 0.00 9 1016.8
20260502054535 61 0 0.0 0.0 0.00 0.00 0.00 9 1016.9
20260502054407 61 270 0.0 1.0 0.00 0.00 0.00 9 1016.8
20260502054116 62 270 0.0 1.0 0.00 0.00 0.00 9 1016.9
20260502053616 61 0 0.0 1.0 0.00 0.00 0.00 9 1017.0
20260502053541 61 0 0.0 1.0 0.00 0.00 0.00 9 1017.0
20260502053127 61 270 1.0 2.0 0.00 0.00 0.00 9 1016.9
20260502052718 61 270 1.0 2.0 0.00 0.00 0.00 9 1016.8
20260502052716 61 270 1.0 2.0 0.00 0.00 0.00 9 1016.8
20260502052442 61 270 1.0 2.0 0.00 0.00 0.00 9 1016.8
20260502052016 61 270 2.0 2.0 0.00 0.00 0.00 9 1016.6
20260502051532 61 270 1.0 2.0 0.00 0.00 0.00 9 1016.7
20260502051102 61 0 0.0 1.0 0.00 0.00 0.00 9 1016.7
20260502050610 61 0 0.0 0.0 0.00 0.00 0.00 9 1016.8
20260502050538 61 0 0.0 0.0 0.00 0.00 0.00 9 1016.7
20260502050122 61 0 0.0 0.0 0.00 0.00 0.00 9 1016.6
20260502045710 61 0 0.0 0.0 0.00 0.00 0.00 9 1016.6
20260502045432 61 0 0.0 0.0 0.00 0.00 0.00 9 1016.5
20260502045327 61 0 0.0 0.0 0.00 0.00 0.00 9 1016.6
20260502045020 61 0 0.0 0.0 0.00 0.00 0.00 9 1016.7
20260502044524 61 270 1.0 2.0 0.00 0.00 0.00 9 1016.8
20260502044424 61 270 1.0 2.0 0.00 0.00 0.00 9 1016.9
20260502044059 61 0 0.0 0.0 0.00 0.00 0.00 9 1016.8
20260502043620 61 0 0.0 0.0 0.00 0.00 0.00 9 1016.7
20260502043146 61 0 0.0 0.0 0.00 0.00 0.00 9 1016.8
20260502042716 61 0 0.0 0.0 0.00 0.00 0.00 9 1016.8
20260502042308 61 270 0.0 1.0 0.00 0.00 0.00 9 1016.9
20260502041908 61 0 0.0 0.0 0.00 0.00 0.00 9 1016.9
20260502041428 61 0 0.0 1.0 0.00 0.00 0.00 9 1017.0
20260502041404 61 270 0.0 2.0 0.00 0.00 0.00 9 1017.0
20260502041023 61 0 0.0 1.0 0.00 0.00 0.00 9 1017.0
20260502040529 61 0 0.0 0.0 0.00 0.00 0.00 9 1017.1
20260502040118 61 247 0.0 1.0 0.00 0.00 0.00 9 1017.1
20260502035713 61 270 1.0 2.0 0.00 0.00 0.00 9 1017.2
20260502035341 61 270 2.0 2.0 0.00 0.00 0.00 9 1017.3
20260502034851 61 270 1.0 1.0 0.00 0.00 0.00 9 1017.4
20260502034439 61 270 0.0 1.0 0.00 0.00 0.00 9 1017.3
20260502034035 61 270 1.0 2.0 0.00 0.00 0.00 9 1017.3
20260502033621 61 292 1.0 2.0 0.00 0.00 0.00 9 1017.3
20260502033126 61 292 1.0 1.0 0.00 0.00 0.00 9 1017.4
20260502032710 61 292 1.0 2.0 0.00 0.00 0.00 9 1017.3
20260502032444 61 292 1.0 2.0 0.00 0.00 0.00 9 1017.5
20260502032002 61 292 0.0 1.0 0.00 0.00 0.00 9 1017.4
20260502031656 61 292 1.0 2.0 0.00 0.00 0.00 9 1017.4
20260502031514 61 270 1.0 2.0 0.00 0.00 0.00 9 1017.4
20260502031043 61 270 3.0 3.0 0.00 0.00 0.00 9 1017.4
20260502030657 61 270 2.0 3.0 0.00 0.00 0.00 9 1017.3
20260502030624 61 270 2.0 3.0 0.00 0.00 0.00 9 1017.3
20260502030159 61 0 0.0 0.0 0.00 0.00 0.00 9 1017.2
20260502025708 61 0 0.0 0.0 0.00 0.00 0.00 9 1017.0
20260502025706 61 0 0.0 0.0 0.00 0.00 0.00 9 1017.0
20260502025704 61 0 0.0 0.0 0.00 0.00 0.00 9 1017.0
20260502025548 61 0 0.0 0.0 0.00 0.00 0.00 9 1017.0
20260502025405 61 0 0.0 0.0 0.00 0.00 0.00 9 1017.0
20260502025000 61 202 0.0 2.0 0.00 0.00 0.00 9 1017.2
20260502024556 61 0 0.0 0.0 0.00 0.00 0.00 9 1017.1
20260502024117 61 292 0.0 1.0 0.00 0.00 0.00 9 1017.1
20260502023702 61 270 1.0 2.0 0.00 0.00 0.00 9 1017.1
20260502023630 61 270 1.0 2.0 0.00 0.00 0.00 9 1017.1
20260502023201 61 292 2.0 2.0 0.00 0.00 0.00 9 1017.1
20260502022713 61 270 1.0 1.0 0.00 0.00 0.00 9 1017.3
20260502022711 61 270 1.0 1.0 0.00 0.00 0.00 9 1017.3
20260502022535 61 270 1.0 1.0 0.00 0.00 0.00 9 1017.3
20260502022516 61 270 1.0 2.0 0.00 0.00 0.00 9 1017.2
20260502022053 61 0 0.0 0.0 0.00 0.00 0.00 9 1017.3
20260502021602 61 0 0.0 0.0 0.00 0.00 0.00 9 1017.3